STARLINK-36139

Last updated on Fri Dec 19 2025 00:02:09 GMT+0000 (Coordinated Universal Time)

1 66966U 25288H 25352.58336806 -.01269269 00000+0 -56039-2 0 9995 2 66966 43.0009 131.3864 0001431 271.2780 307.7076 15.86098984 2777
UTC large
Height (km)
Speed (km/s)
/
Latitude / Longitude
Inclination (degrees)
Orbital Period (minutes)
Azimuth
Elevation
Range (km)
Doppler Factor

Next 0 passes for location: London (51.5072 / 0.1276)

Sorry there are no passes over London.